Regional Weather Roundup
Issued by NWS

Home | Current Version | Previous Version | Graphics & Text | Print | Product List | Glossary Off
Versions: 1 2 3 4 5 6 7 8 9 10 11 12 13 14 15 16 17 18 19 20 21 22 23 24 25 26 27 28 29 30 31 32 33 34 35 36 37 38 39 40 41 42 43 44 45 46 47 48 49 50

000
ASUS43 KMKX 171721
RWRWI

WISCONSIN REGIONAL WEATHER ROUNDUP
NATIONAL WEATHER SERVICE MILWAUKEE/SULLIVAN WI
1200 PM CDT WED SEP 17 2014

NOTE: "FAIR" INDICATES FEW OR NO CLOUDS BELOW 12,000 FEET WITH NO
SIGNIFICANT WEATHER AND/OR OBSTRUCTIONS TO VISIBILITY.

WIZ001-002-006>008-014>016-023>028-171800-
NORTHWEST WISCONSIN

CITY           SKY/WX    TMP DP  RH WIND       PRES   REMARKS
SUPERIOR ARPT  SUNNY     66  53  61 SW3       29.94S
ASHLAND        SUNNY     67  50  54 N5        29.95S
HAYWARD        SUNNY     66  48  52 NW7       29.95F
SIREN          SUNNY     66  51  57 N3        29.96S
RICE LAKE      SUNNY     65  51  60 CALM      29.98S
LADYSMITH      MOSUNNY   65  52  62 CALM      29.98S
EAU CLAIRE     SUNNY     66  51  58 S7        29.96F
MENOMONIE      SUNNY     65  51  60 SW5       29.97F
NEW RICHMOND   MOSUNNY   65  51  59 SW3       29.96S
OSCEOLA        SUNNY     65  52  62 CALM      29.98S
$$

WIZ003>005-009-010-017-018-171800-
NORTH CENTRAL WISCONSIN

CITY           SKY/WX    TMP DP  RH WIND       PRES   REMARKS
WOODRUFF       SUNNY     64  48  56 W9        29.95S
RHINELANDER    SUNNY     65  47  52 W10       29.96F
EAGLE RIVER    SUNNY     64  42  44 NW9       29.94F
LAND O LAKES   SUNNY     64  44  47 NW5       29.95S
PHILLIPS       CLOUDY    64  51  61 W6        29.96S
TOMAHAWK       SUNNY     65  48  53 W7        29.96F
MEDFORD        PTSUNNY   64  50  59 W8        29.97F
MERRILL        PTSUNNY   65  50  57 NW6       29.96F
$$

WIZ029-030-035-036-043>047-171800-
CENTRAL WISCONSIN

CITY           SKY/WX    TMP DP  RH WIND       PRES   REMARKS
WAUSAU         PTSUNNY   66  49  54 W12       29.96S
MOSINEE        SUNNY     63  52  67 W8        29.99S
MARSHFIELD     PTSUNNY   65  50  58 W9        29.98S
STEVENS POINT  SUNNY     63  47  55 W7        29.98F
WAUPACA        SUNNY     67  47  47 SW8G16    29.98F
WAUTOMA        MOSUNNY   68  47  46 W9        29.99F
WISC RAPIDS    CLOUDY    65  48  54 SW10      30.00S
CAMP DOUGLAS   MOSUNNY   66  52  59 SW10      29.99F
$$

WIZ011>013-019>022-031-037>040-048>050-171800-
NORTHEAST WISCONSIN

CITY           SKY/WX    TMP DP  RH WIND       PRES   REMARKS
ANTIGO         SUNNY     64  48  56 W7        29.96F
STURGEON BAY   SUNNY     63  46  55 W10       29.97F
GREEN BAY      SUNNY     67  48  50 W9        29.97F
MANITOWOC      MOSUNNY   66  48  52 W10       29.98F
APPLETON       MOSUNNY   64  46  52 W7        29.99S
CLINTONVILLE   MOSUNNY   64  46  52 W9        29.97S
OSHKOSH        SUNNY     65  47  52 W7        29.98F
$$

WIZ032>034-041-042-053>061-171800-
SOUTHWEST WISCONSIN

CITY           SKY/WX    TMP DP  RH WIND       PRES   REMARKS
LA CROSSE      SUNNY     66  52  60 S8        29.99F
SPARTA         CLOUDY    64  49  57 W5        30.00S
VIROQUA        FAIR      64  49  57 W5        30.01S
BOSCOBEL       PTSUNNY   66  50  56 VRB5      30.01F
PRAIRIE DU CHI CLOUDY    62  49  62 CALM      30.01S
PLATTEVILLE    PTSUNNY   66  48  52 W6        30.02F
$$

WIZ056-057-062-063-064-067-068-171800-
SOUTH CENTRAL WISCONSIN

CITY           SKY/WX    TMP DP  RH WIND       PRES   REMARKS
BARABOO/DELLS  MOSUNNY   65  44  46 SW8       30.00F
LONE ROCK      MOSUNNY   68  50  52 VRB7      30.01F
WATERTOWN      MOSUNNY   65  47  52 SW6       30.00F
MADISON        PTSUNNY   65  47  52 VRB6      30.01F
MIDDLETON      FAIR      67  45  46 W5        30.01F
MONROE         PTSUNNY   63  46  55 CALM      30.01F
JANESVILLE     PTSUNNY   66  45  45 SW6       30.01F
$$

WIZ051-052-058>065-066-070>072-171800-
SOUTHEAST WISCONSIN

CITY           SKY/WX    TMP DP  RH WIND       PRES   REMARKS
MILWAUKEE      MOSUNNY   65  43  44 CALM      30.01F
WAUKESHA       SUNNY     63  45  51 W6        30.02F
MILWAUKEE/TIMM SUNNY     61  41  48 W5        30.01F
RACINE         MOSUNNY   66  44  45 W6        30.03F
BURLINGTON     SUNNY     63  42  46 CALM      30.02S
KENOSHA        PTSUNNY   63  46  54 NW5       30.02F
FOND DU LAC    SUNNY     65  47  52 W7        29.99F
SHEBOYGAN      MOSUNNY   65  45  48 W7        29.99F
WEST BEND      SUNNY     63  43  48 W10       29.99F
JUNEAU         MOSUNNY   63  48  57 SW7       30.01F
$$

LSZ147-162-171800-
LAKE SUPERIOR

STATION/POSITION TIME  TEMP    WIND        PRES    WAVE
                       AIR SEA DIR/SP/G            HT/PER
                 (UTC) (F)     (DEG/KT/KT) (MB)    (FT/S)
W MID LAKE BUOY  1650   44 45   60/ 19/ 23 1015.8R   4/ 5
DEVILS ISLAND    1700   47      60/ 19/ 21 1016.1R
PORT WING        1600   61     190/  3/  5 1014.2S
SAXON HARBOR     1600   58        CALM     1014.6R
$$

LMZ867-665-643>646-171800-
LAKE MICHIGAN

STATION/POSITION TIME  TEMP    WIND        PRES    WAVE
                       AIR SEA DIR/SP/G            HT/PER
                 (UTC) (F)     (DEG/KT/KT) (MB)    (FT/S)
N MID LAKE BUOY  1650   58 58  230/ 10/ 10 1014.2F   1/ 4
NORTHPORT PIER   1600   63     270/  3/  9 1014.6F
KEWAUNEE LAKESHO 1700   65     270/  7/ 12 1014.0F
SHEBOYGAN LAKESH 1700   63 49  280/  5/  6 1015.7F
PORT WASHINGTON  1600   65     260/  3/ 10 1016.6F
ATWATER BUOY     1700   61     160/  2/  4 1017.0F
MILWAUKEE LAKESH 1700   64     250/  5/  8   N/A
S MID LAKE BUOY  1650   61 65  270/  6/  8 1016.9S   1/ 4
KENOSHA   LAKESH 1700   64     110/  6/  6 1016.3S
$$

TC  - TEMPERATURE IN CELSIUS
VSB - VISIBILITY IN STATUTE MILES
WCI - WIND CHILL INDEX
HX  - HEAT INDEX




USA.gov is the U.S. government's official web portal to all federal, state and local government web resources and services.